Fargo, ND

1:53 AM CST on February 21, 2018 (GMT -0600)
Hector International

Weather History for KFAR - March, 2012

Change the Weather History Date:

Thursday, March 1, 2012

  Actual Average Record
Temperature  
Mean Temperature 29 °F 20 °F  
Max Temperature 34 °F 29 °F 58 °F (1990)
Min Temperature 24 °F 12 °F -23 °F (1962)
Degree Days  
Heating Degree Days 36 45  
Month to date heating degree days 36 45  
Since 1 July heating degree days 5463 6723  
Cooling Degree Days 0 0  
Month to date cooling degree days 0 0  
Year to date cooling degree days 0 0  
Moisture  
Dew Point 23 °F    
Average Humidity 80    
Maximum Humidity 88    
Minimum Humidity 72    
Precipitation  
Precipitation 0.01 in 0.04 in 0.45 in (2007)
Month to date precipitation 0.01 0.04  
Year to date precipitation 1.54 1.35  
Snow  
Snow 0.30 in 0.40 in 6.50 in (2007)
Month to date snowfall 0.3 0.4  
Since 1 July snowfall 25.0 38.4  
Snow Depth 9.00 in    
Sea Level Pressure  
Sea Level Pressure 29.73 in    
Wind  
Wind Speed 7 mph (South)    
Max Wind Speed 21 mph    
Max Gust Speed 25 mph    
Visibility 7 miles    
Events Fog , Snow    
T = Trace of Precipitation, MM = Missing Value Source: NWS Daily Summary

Daily Weather History Graph

Daily Weather History Graph

Search for Another Location

Airport or City:

Trip Planner

Search our weather history database for the weather conditions in past years. The results will help you decide how hot, cold, wet, or windy it might be!

Date:

Astronomy

Mar. 01, 2012 Rise Set
Actual Time 7:06 AM CST 6:13 PM CST
Civil Twilight 6:35 AM CST 6:44 PM CST
Nautical Twilight 6:00 AM CST 7:19 PM CST
Astronomical Twilight 5:25 AM CST 7:54 PM CST
Moon 11:16 AM CST (3/1) 2:23 AM CST (3/1)
Length of Visible Light 12h 08m
Length of Day
11h 07m
First Quarter, 57% of the Moon is Illuminated
Mar 1
First Quarter
Mar 8
Full
Mar 14
Last Quarter
Mar 22
New
Mar 30
First Quarter

Hourly Weather History & Observations

Time (CST) Temp. Windchill Dew Point Humidity Pressure Visibility Wind Dir Wind Speed Gust Speed Precip Events Conditions
12:53 AM 25.0 °F 18.1 °F 21.0 °F 85% 29.81 in 9.0 mi WNW 5.8 mph - 0.00 in   Overcast
1:53 AM 25.0 °F 19.3 °F 21.0 °F 85% 29.82 in 7.0 mi West 4.6 mph - 0.00 in Snow Light Snow
2:21 AM 24.8 °F - 21.2 °F 86% 29.76 in 2.5 mi Calm Calm - 0.00 in Snow Light Snow
2:41 AM 24.8 °F - 21.2 °F 86% 29.77 in 1.8 mi Calm Calm - 0.00 in Snow Light Snow
2:53 AM 26.1 °F - 21.0 °F 81% 29.81 in 1.5 mi Calm Calm - 0.00 in Snow Light Snow
3:04 AM 24.8 °F 20.5 °F 21.2 °F 86% 29.77 in 3.0 mi West 3.5 mph - 0.01 in Snow Light Snow
3:20 AM 24.8 °F 19.1 °F 21.2 °F 86% 29.77 in 5.0 mi West 4.6 mph - 0.01 in Snow Light Snow
3:53 AM 25.0 °F - 21.9 °F 88% 29.80 in 9.0 mi Calm Calm - 0.01 in   Overcast
4:04 AM 24.8 °F - 21.2 °F 86% 29.75 in 9.0 mi Calm Calm - N/A   Overcast
4:53 AM 24.1 °F - 21.0 °F 88% 29.79 in 8.0 mi Calm Calm - N/A   Overcast
5:53 AM 25.0 °F - 21.0 °F 85% 29.77 in 7.0 mi Calm Calm - N/A   Overcast
6:53 AM 26.1 °F - 21.0 °F 81% 29.77 in 8.0 mi Calm Calm - N/A   Overcast
7:26 AM 26.6 °F - 23.0 °F 86% 29.74 in 2.0 mi Calm Calm - N/A   Overcast
7:36 AM 26.6 °F 20.0 °F 23.0 °F 86% 29.75 in 1.5 mi SW 5.8 mph - N/A   Overcast
7:44 AM 26.6 °F 20.0 °F 23.0 °F 86% 29.76 in 0.2 mi SW 5.8 mph - N/A Fog Light Freezing Fog
7:53 AM 26.1 °F 20.5 °F 23.0 °F 88% 29.80 in 0.2 mi SSW 4.6 mph - N/A Fog Light Freezing Fog
8:06 AM 26.6 °F - 23.0 °F 86% 29.75 in 1.0 mi Calm Calm - N/A   Overcast
8:24 AM 26.6 °F 21.2 °F 21.2 °F 80% 29.73 in 2.0 mi East 4.6 mph - N/A   Overcast
8:48 AM 26.6 °F 19.1 °F 23.0 °F 86% 29.72 in 2.5 mi ESE 6.9 mph - 0.00 in Snow Light Snow
8:53 AM 27.0 °F 19.5 °F 23.0 °F 85% 29.76 in 2.5 mi ESE 6.9 mph - 0.00 in Snow Light Snow
9:16 AM 26.6 °F 20.0 °F 23.0 °F 86% 29.74 in 4.0 mi SSE 5.8 mph - 0.00 in   Overcast
9:53 AM 27.0 °F 17.3 °F 23.0 °F 85% 29.79 in 7.0 mi South 10.4 mph - 0.00 in   Overcast
10:53 AM 28.9 °F 22.8 °F 24.1 °F 82% 29.78 in 9.0 mi South 5.8 mph - N/A   Overcast
11:53 AM 30.9 °F 25.2 °F 25.0 °F 79% 29.76 in 8.0 mi South 5.8 mph - N/A   Overcast
12:53 PM 32.0 °F 25.6 °F 25.0 °F 75% 29.74 in 9.0 mi SSE 6.9 mph - N/A   Overcast
1:53 PM 32.0 °F 23.0 °F 25.0 °F 75% 29.69 in 9.0 mi ESE 11.5 mph - N/A   Overcast
2:44 PM 33.8 °F 26.4 °F 26.6 °F 75% 29.65 in 10.0 mi SSE 9.2 mph - N/A   Overcast
2:53 PM 34.0 °F 25.5 °F 26.1 °F 73% 29.68 in 10.0 mi SE 11.5 mph - N/A   Overcast
3:53 PM 33.1 °F 23.0 °F 27.0 °F 78% 29.68 in 10.0 mi South 15.0 mph - N/A   Overcast
4:11 PM 32.0 °F 20.8 °F 26.6 °F 80% 29.64 in 8.0 mi South 17.3 mph - N/A   Overcast
4:40 PM 30.2 °F 18.1 °F 24.8 °F 80% 29.64 in 9.0 mi South 18.4 mph - N/A   Overcast
4:53 PM 30.9 °F 20.7 °F 25.0 °F 79% 29.68 in 9.0 mi South 13.8 mph - N/A   Overcast
5:53 PM 30.0 °F 20.0 °F 23.0 °F 75% 29.70 in 10.0 mi SSW 12.7 mph - N/A   Overcast
6:53 PM 28.9 °F 20.4 °F 21.9 °F 75% 29.71 in 10.0 mi SW 9.2 mph - N/A   Overcast
7:25 PM 28.4 °F 19.1 °F 21.2 °F 74% 29.67 in 10.0 mi SSW 10.4 mph - N/A   Overcast
7:45 PM 28.4 °F 19.1 °F 21.2 °F 74% 29.67 in 10.0 mi SSW 10.4 mph - N/A   Overcast
7:53 PM 28.0 °F 18.6 °F 21.9 °F 78% 29.71 in 10.0 mi SSW 10.4 mph - N/A   Overcast
8:53 PM 28.0 °F 19.3 °F 21.9 °F 78% 29.70 in 10.0 mi South 9.2 mph - N/A   Overcast
9:20 PM 26.6 °F 19.1 °F 21.2 °F 80% 29.67 in 10.0 mi South 6.9 mph - N/A   Scattered Clouds
9:53 PM 27.0 °F 17.3 °F 21.0 °F 78% 29.70 in 10.0 mi South 10.4 mph - N/A   Partly Cloudy
10:53 PM 27.0 °F 16.1 °F 21.0 °F 78% 29.69 in 9.0 mi South 12.7 mph - N/A   Overcast
11:53 PM 25.0 °F 14.2 °F 19.0 °F 78% 29.68 in 10.0 mi South 11.5 mph - N/A   Clear